[[{"header":{"parameterUnit":"m.s-1","parameterCategory":2,"la1":30.2992,"la2":30.254,"lo1":-89.0895,"lo2":-89.0443,"dy":0.0025,"dx":0.0025,"nx":19,"ny":19,"refTime":"2026-03-23T09:00:00:Z","depth":"0","parameterNumber":2,"parameterNumberName":"U-component_of_CURRENTS"},"data":[0,0,0,-0.3121,-0.312,-0.3106,-0.3106,-0.3034,-0.3033,0,0,0,0,0,0,0,0,0,0,0,-0.3105,-0.3104,-0.3121,-0.312,-0.3106,-0.3106,-0.3034,-0.3033,0,0,0,0,0,0,0,0,0,0,0,-0.3105,-0.3104,-0.3104,-0.312,-0.3106,-0.3106,-0.3034,-0.3058,0,0,0,0,0,0,0,0,0,0,-0.3079,-0.3064,-0.3105,-0.3104,-0.312,-0.3106,-0.3106,-0.306,-0.3057,-0.3026,0,-0.3008,0,-0.3027,-0.3027,-0.3027,0,0,0,-0.3119,-0.3067,-0.3074,-0.3104,-0.312,-0.3106,-0.3112,-0.3058,-0.3055,-0.3021,-0.3007,-0.3006,-0.3025,-0.3027,-0.3026,-0.291,-0.2909,0,0,-0.312,-0.3094,-0.3077,-0.3071,-0.3094,-0.3112,-0.3112,-0.3057,-0.3035,-0.3007,-0.3005,-0.3024,-0.3026,-0.3026,-0.291,-0.2909,0,0,0,-0.3123,-0.3094,-0.3104,-0.3073,-0.3079,-0.3112,-0.3111,-0.3038,-0.3043,-0.3004,-0.3023,-0.3026,-0.3025,-0.2911,-0.291,-0.3031,0,0,0,-0.3124,-0.3097,-0.3103,-0.3087,-0.308,-0.3064,-0.3092,-0.3046,-0.3042,-0.3024,-0.3026,-0.3024,-0.2912,-0.291,-0.303,-0.3053,0,0,0,-0.311,-0.3096,-0.3091,-0.3086,-0.3085,-0.3066,-0.3068,-0.3046,-0.3053,-0.3027,-0.3024,-0.2912,-0.2911,-0.3028,-0.305,-0.2964,0,0,0,-0.3092,-0.3055,-0.3089,-0.3076,-0.3085,-0.3109,-0.3069,-0.3069,-0.3051,-0.3025,-0.2911,-0.291,-0.3028,-0.3049,-0.2964,-0.2463,-0.2423,0,0,-0.304,-0.3047,-0.3053,-0.3084,-0.3118,-0.3113,-0.3135,-0.3088,-0.301,-0.2927,-0.2925,-0.303,-0.305,-0.2964,-0.2378,-0.234,0,0,0,-0.3037,-0.3032,-0.3049,-0.3081,-0.3117,-0.3139,-0.3124,-0.3102,-0.3031,-0.2992,-0.2965,-0.2971,-0.2915,-0.261,-0.258,-0.233,-0.2903,-0.2903,-0.2903,-0.2904,-0.2986,-0.2999,-0.3086,-0.3116,-0.3157,-0.3161,-0.3106,-0.3066,-0.3035,-0.3025,-0.2977,-0.2654,-0.2625,-0.2377,-0.2985,-0.2986,-0.2986,-0.2986,-0.2841,-0.2834,-0.2971,-0.3005,-0.3085,-0.3109,-0.3165,-0.3157,-0.3096,-0.3074,-0.3012,-0.2696,-0.2598,-0.2345,-0.2993,-0.2992,-0.2991,-0.299,-0.299,-0.2727,-0.2725,-0.2801,-0.289,-0.2965,-0.3061,-0.3088,-0.3154,-0.3127,-0.3123,-0.2653,-0.2644,-0.2452,-0.3049,-0.3049,-0.3048,-0.3048,-0.3048,-0.3048,-0.2532,-0.262,-0.2628,-0.2758,-0.2804,-0.2906,-0.3031,-0.2995,-0.2789,-0.2684,-0.2677,-0.2335,-0.2993,-0.3026,-0.3044,-0.3045,-0.3045,-0.3046,-0.3046,-0.2285,-0.2372,-0.2382,-0.2429,-0.2576,-0.2533,-0.2734,-0.2428,-0.2384,-0.213,-0.1797,-0.2402,-0.2283,-0.2299,-0.231,-0.2142,-0.2142,-0.2141,-0.2141,-0.208,-0.2141,-0.2124,-0.2176,-0.227,-0.2349,-0.1953,-0.1652,-0.1307,-0.1055,-0.1299,-0.1173,-0.1221,-0.104,-0.1084,-0.107,-0.0592,-0.0591,-0.0589,-0.187,-0.1937,-0.1834,-0.198,-0.2106,-0.2043,-0.1475,-0.0791,-0.0352,-0.0528,-0.1066,-0.1131,-0.0969,-0.1063,-0.0802,-0.0883,-0.087,0,0]},{"header":{"parameterUnit":"m.s-1","parameterCategory":2,"la1":30.2992,"la2":30.254,"lo1":-89.0895,"lo2":-89.0443,"dy":0.0025,"dx":0.0025,"nx":19,"ny":19,"refTime":"2026-03-23T09:00:00:Z","depth":"0","parameterNumber":3,"parameterNumberName":"V-component_of_CURRENTS"},"data":[0,0,0,-0.0851,-0.0849,-0.0716,-0.0715,-0.0587,-0.0587,0,0,0,0,0,0,0,0,0,0,0,-0.0897,-0.0897,-0.0851,-0.0849,-0.0716,-0.0715,-0.0587,-0.0587,0,0,0,0,0,0,0,0,0,0,0,-0.0897,-0.0897,-0.0896,-0.0848,-0.0716,-0.0715,-0.0588,-0.0672,0,0,0,0,0,0,0,0,0,0,-0.0793,-0.0851,-0.0897,-0.0896,-0.0848,-0.0716,-0.0715,-0.0675,-0.0667,-0.0666,0,-0.0658,0,-0.063,-0.0581,-0.0581,0,0,0,-0.0826,-0.0858,-0.0814,-0.0896,-0.0847,-0.0717,-0.077,-0.067,-0.066,-0.0655,-0.0656,-0.0651,-0.0628,-0.058,-0.058,-0.0725,-0.0727,0,0,-0.0834,-0.0877,-0.0821,-0.0809,-0.0829,-0.0774,-0.0766,-0.0663,-0.0668,-0.0656,-0.0647,-0.0626,-0.058,-0.0579,-0.0723,-0.0726,0,0,0,-0.087,-0.0883,-0.0839,-0.0814,-0.0793,-0.0771,-0.0761,-0.0672,-0.0655,-0.0646,-0.0625,-0.0579,-0.0578,-0.0721,-0.0724,-0.0886,0,0,0,-0.0873,-0.0905,-0.0843,-0.0868,-0.0795,-0.0729,-0.0772,-0.0662,-0.0649,-0.0625,-0.0579,-0.0578,-0.0718,-0.0723,-0.0876,-0.0905,0,0,0,-0.09,-0.0908,-0.0895,-0.087,-0.0821,-0.0729,-0.0706,-0.0658,-0.0638,-0.0581,-0.0577,-0.0717,-0.0722,-0.0868,-0.0892,-0.0727,0,0,0,-0.0943,-0.1015,-0.0897,-0.0986,-0.0823,-0.0872,-0.0706,-0.0715,-0.0689,-0.0579,-0.0719,-0.0724,-0.0865,-0.0884,-0.0724,-0.0289,-0.027,0,0,-0.1077,-0.1032,-0.1093,-0.0986,-0.1095,-0.0888,-0.0987,-0.0858,-0.0769,-0.0744,-0.0747,-0.088,-0.0891,-0.0726,-0.0594,-0.0564,0,0,0,-0.1167,-0.1204,-0.1224,-0.1242,-0.1214,-0.1159,-0.1038,-0.0979,-0.0941,-0.0777,-0.0942,-0.0944,-0.0832,-0.0567,-0.0547,-0.0199,-0.0748,-0.0748,-0.0747,-0.1356,-0.1357,-0.1473,-0.1461,-0.147,-0.1362,-0.1313,-0.1212,-0.1123,-0.115,-0.1125,-0.118,-0.0914,-0.0889,-0.0546,-0.1202,-0.1202,-0.1203,-0.1203,-0.1563,-0.1616,-0.1626,-0.1733,-0.1665,-0.1693,-0.1563,-0.1468,-0.1345,-0.1328,-0.1208,-0.0817,-0.0873,-0.0515,-0.1215,-0.1213,-0.1211,-0.121,-0.1209,-0.1657,-0.1683,-0.1753,-0.1868,-0.1911,-0.1842,-0.1764,-0.1671,-0.147,-0.1418,-0.0912,-0.0902,-0.0518,-0.1293,-0.1293,-0.1292,-0.1292,-0.1291,-0.1291,-0.1687,-0.1768,-0.1871,-0.1988,-0.203,-0.2023,-0.1854,-0.1658,-0.1225,-0.1012,-0.1005,-0.0494,-0.1201,-0.1118,-0.1284,-0.1285,-0.1286,-0.1287,-0.1287,-0.1724,-0.177,-0.1931,-0.2008,-0.2097,-0.1956,-0.1843,-0.1178,-0.091,-0.0546,-0.0026,-0.0709,-0.0548,-0.0559,-0.046,-0.0443,-0.0443,-0.0443,-0.0443,-0.1702,-0.1756,-0.1921,-0.2029,-0.2071,-0.1918,-0.1285,-0.0641,0.0157,0.0552,0.0502,0.059,0.0541,0.0767,0.0725,0.085,0.1198,0.12,0.1202,-0.1667,-0.176,-0.1825,-0.1989,-0.2041,-0.1746,-0.0987,0.0027,0.104,0.1282,0.0888,0.0819,0.0943,0.0838,0.1182,0.1096,0.1296,0,0]}],[{"header":{"parameterUnit":"m.s-1","parameterCategory":2,"la1":30.2992,"la2":30.254,"lo1":-89.0895,"lo2":-89.0443,"dy":0.0025,"dx":0.0025,"nx":19,"ny":19,"refTime":"2026-03-23T09:00:00:Z","depth":"2","parameterNumber":2,"parameterNumberName":"U-component_of_CURRENTS"},"data":[0,0,0,-0.2235,-0.2237,-0.2315,-0.2315,-0.2374,-0.2374,0,0,0,0,0,0,0,0,0,0,0,-0.2194,-0.2194,-0.2235,-0.2237,-0.2315,-0.2315,-0.2374,-0.2374,0,0,0,0,0,0,0,0,0,0,0,-0.2194,-0.2194,-0.2194,-0.2237,-0.2315,-0.2315,-0.2374,-0.2325,0,0,0,0,0,0,0,0,0,0,-0.2255,-0.2218,-0.2194,-0.2194,-0.2238,-0.2315,-0.2315,-0.2323,-0.2328,-0.2326,0,-0.2329,0,-0.2358,-0.2377,-0.2377,0,0,0,-0.2238,-0.2214,-0.2241,-0.2194,-0.2238,-0.2315,-0.228,-0.2326,-0.2332,-0.2332,-0.233,-0.2333,-0.2359,-0.2377,-0.2378,-0.2466,-0.2467,0,0,-0.2234,-0.2205,-0.2237,-0.2244,-0.2246,-0.2278,-0.2282,-0.233,-0.2326,-0.233,-0.2335,-0.236,-0.2378,-0.2378,-0.2466,-0.2467,0,0,0,-0.2221,-0.2202,-0.2228,-0.2241,-0.2261,-0.228,-0.2285,-0.2323,-0.2334,-0.2336,-0.236,-0.2378,-0.2378,-0.2465,-0.2466,-0.2559,0,0,0,-0.2218,-0.2195,-0.2226,-0.221,-0.226,-0.2299,-0.2277,-0.233,-0.2337,-0.236,-0.2378,-0.2379,-0.2464,-0.2466,-0.2555,-0.2563,0,0,0,-0.2192,-0.2192,-0.2199,-0.2208,-0.2244,-0.2299,-0.2312,-0.2332,-0.2352,-0.2377,-0.2379,-0.2464,-0.2465,-0.2552,-0.2558,-0.2531,0,0,0,-0.2165,-0.2171,-0.2197,-0.2229,-0.2243,-0.2329,-0.2312,-0.2366,-0.2392,-0.2378,-0.2465,-0.2466,-0.2551,-0.2555,-0.2529,-0.224,-0.2226,0,0,-0.2161,-0.2169,-0.2196,-0.2223,-0.2307,-0.2319,-0.241,-0.2426,-0.2414,-0.2444,-0.2447,-0.2557,-0.2558,-0.2531,-0.233,-0.2313,0,0,0,-0.2191,-0.2207,-0.2238,-0.2295,-0.2358,-0.2436,-0.246,-0.2478,-0.2527,-0.2437,-0.2562,-0.2559,-0.2539,-0.2361,-0.2349,-0.2473,-0.2473,-0.2473,-0.2473,-0.2133,-0.2206,-0.2259,-0.2355,-0.2423,-0.2517,-0.2577,-0.2606,-0.2584,-0.2623,-0.2641,-0.2689,-0.2504,-0.249,-0.2664,-0.2664,-0.2665,-0.2665,-0.2665,-0.2144,-0.2168,-0.2284,-0.236,-0.2467,-0.2546,-0.2681,-0.2701,-0.275,-0.2731,-0.2708,-0.2475,-0.2481,-0.2673,-0.2671,-0.267,-0.2669,-0.2669,-0.2668,-0.2103,-0.2114,-0.2188,-0.2294,-0.2405,-0.2536,-0.262,-0.2727,-0.2794,-0.2826,-0.2546,-0.254,-0.2699,-0.2786,-0.2786,-0.2786,-0.2786,-0.2786,-0.2786,-0.1993,-0.207,-0.2075,-0.2208,-0.2245,-0.2341,-0.2549,-0.2587,-0.2577,-0.2589,-0.2586,-0.2727,-0.2724,-0.2703,-0.2785,-0.2785,-0.2785,-0.2785,-0.2785,-0.1896,-0.1911,-0.1907,-0.1932,-0.1985,-0.1957,-0.2225,-0.2248,-0.231,-0.2243,-0.2436,-0.2444,-0.2362,-0.2367,-0.2336,-0.2319,-0.2319,-0.2319,-0.2318,-0.1773,-0.1801,-0.1726,-0.1693,-0.1678,-0.1755,-0.1649,-0.1737,-0.192,-0.1951,-0.1968,-0.1897,-0.1922,-0.1813,-0.1831,-0.1789,-0.1629,-0.1628,-0.1628,-0.1669,-0.1661,-0.1562,-0.1538,-0.1528,-0.1445,-0.1281,-0.1196,-0.1319,-0.1611,-0.1958,-0.2251,-0.2188,-0.2211,-0.2076,-0.2093,-0.2038,0,0]},{"header":{"parameterUnit":"m.s-1","parameterCategory":2,"la1":30.2992,"la2":30.254,"lo1":-89.0895,"lo2":-89.0443,"dy":0.0025,"dx":0.0025,"nx":19,"ny":19,"refTime":"2026-03-23T09:00:00:Z","depth":"2","parameterNumber":3,"parameterNumberName":"V-component_of_CURRENTS"},"data":[0,0,0,-0.0309,-0.0307,-0.0191,-0.019,-0.0022,-0.0021,0,0,0,0,0,0,0,0,0,0,0,-0.0349,-0.0349,-0.0309,-0.0307,-0.0191,-0.019,-0.0022,-0.0021,0,0,0,0,0,0,0,0,0,0,0,-0.0349,-0.0349,-0.0348,-0.0306,-0.0191,-0.019,-0.0023,-0.0111,0,0,0,0,0,0,0,0,0,0,-0.0225,-0.0276,-0.0349,-0.0348,-0.0306,-0.0191,-0.019,-0.0115,-0.0106,-0.0074,0,-0.0066,0,-0.0045,-0.001,-0.001,0,0,0,-0.029,-0.0284,-0.025,-0.0348,-0.0305,-0.0191,-0.0238,-0.011,-0.0099,-0.0061,-0.0063,-0.0057,-0.0042,-0.0009,-0.0009,0.0109,0.0109,0,0,-0.0297,-0.0325,-0.0258,-0.0244,-0.0286,-0.0242,-0.0235,-0.0103,-0.0098,-0.0062,-0.0053,-0.004,-0.0008,-0.0007,0.0109,0.0109,0,0,0,-0.0326,-0.033,-0.0299,-0.0251,-0.0234,-0.0239,-0.0231,-0.0103,-0.0093,-0.0051,-0.0038,-0.0008,-0.0006,0.0109,0.0109,0.0038,0,0,0,-0.0329,-0.0348,-0.0302,-0.0318,-0.0238,-0.0172,-0.0234,-0.0102,-0.0086,-0.0038,-0.0007,-0.0004,0.0109,0.0109,0.0039,0.0009,0,0,0,-0.0352,-0.035,-0.034,-0.032,-0.0276,-0.0174,-0.0154,-0.0098,-0.0079,-0.001,-0.0004,0.0109,0.0109,0.004,0.0012,0.0114,0,0,0,-0.038,-0.0383,-0.0341,-0.0349,-0.0278,-0.023,-0.0155,-0.0106,-0.0056,-0.0007,0.0109,0.0109,0.0041,0.0014,0.0113,0.0138,0.0142,0,0,-0.0403,-0.0387,-0.0395,-0.0355,-0.0353,-0.0244,-0.0207,-0.0109,-0.0034,0.0069,0.0073,0.0039,0.0012,0.0114,0.0159,0.0162,0,0,0,-0.0416,-0.0431,-0.042,-0.0412,-0.0351,-0.0286,-0.0182,-0.0112,-0.001,-0.0004,0.0066,0.0052,0.0119,0.0134,0.0136,0.0111,0.0111,0.0111,0.0111,-0.0484,-0.0474,-0.0502,-0.0478,-0.0435,-0.0308,-0.0224,-0.0105,-0.0043,-0.0003,0.0014,0.0066,0.0078,0.0081,0.0038,0.0038,0.0037,0.0037,0.0037,-0.0575,-0.0606,-0.0586,-0.0613,-0.0527,-0.0477,-0.0276,-0.0191,-0.0015,-0.0012,0.0058,0.008,0.0079,0.0032,0.0033,0.0034,0.0034,0.0034,0.0035,-0.065,-0.0663,-0.0686,-0.0726,-0.0694,-0.0575,-0.0442,-0.0279,-0.0087,-0.0017,0.01,0.0101,0.0056,0.0045,0.0045,0.0045,0.0046,0.0046,0.0046,-0.0712,-0.0733,-0.0807,-0.0836,-0.0849,-0.0788,-0.053,-0.0361,-0.0096,0.0044,0.0047,0.0071,0.0071,0.0061,0.0051,0.005,0.0049,0.0049,0.0048,-0.0803,-0.0812,-0.092,-0.0965,-0.0998,-0.096,-0.0709,-0.0305,-0.0069,0.009,0.013,0.0127,0.0178,0.0177,0.0172,0.0192,0.0192,0.0192,0.0192,-0.0857,-0.0875,-0.1003,-0.1078,-0.1118,-0.1029,-0.0748,-0.0382,-0.0019,0.0087,0.0091,0.0041,0.0039,0.008,0.0081,0.0074,0.0067,0.0067,0.0066,-0.0924,-0.0951,-0.1042,-0.112,-0.1171,-0.1099,-0.0846,-0.0358,0.0048,0.0054,-0.0007,0.0199,0.0134,0.0127,0.02,0.0197,0.019,0,0]}],[{"header":{"parameterUnit":"m.s-1","parameterCategory":2,"la1":30.2992,"la2":30.254,"lo1":-89.0895,"lo2":-89.0443,"dy":0.0025,"dx":0.0025,"nx":19,"ny":19,"refTime":"2026-03-23T09:00:00:Z","depth":"4","parameterNumber":2,"parameterNumberName":"U-component_of_CURRENTS"},"data":[0,0,0,-0.1614,-0.1618,-0.1806,-0.1806,-0.1928,-0.1929,0,0,0,0,0,0,0,0,0,0,0,-0.1552,-0.1554,-0.1614,-0.1619,-0.1806,-0.1806,-0.1928,-0.1929,0,0,0,0,0,0,0,0,0,0,0,-0.1551,-0.1553,-0.1555,-0.162,-0.1806,-0.1806,-0.1928,-0.1814,0,0,0,0,0,0,0,0,0,0,-0.1647,-0.161,-0.1553,-0.1555,-0.1621,-0.1805,-0.1807,-0.181,-0.1821,-0.1811,0,-0.1856,0,-0.1895,-0.1935,-0.1935,0,0,0,-0.1613,-0.1601,-0.1651,-0.1556,-0.1623,-0.1805,-0.172,-0.1817,-0.183,-0.1826,-0.1858,-0.1864,-0.1897,-0.1935,-0.1936,-0.2048,-0.2049,0,0,-0.1603,-0.1582,-0.1643,-0.166,-0.169,-0.1714,-0.1726,-0.1826,-0.1844,-0.1859,-0.1867,-0.1899,-0.1936,-0.1937,-0.2048,-0.2049,0,0,0,-0.1577,-0.1574,-0.1625,-0.1653,-0.1698,-0.1719,-0.1733,-0.184,-0.1858,-0.1869,-0.1901,-0.1936,-0.1938,-0.2047,-0.2048,-0.2054,0,0,0,-0.157,-0.156,-0.162,-0.1609,-0.1697,-0.1788,-0.1744,-0.1851,-0.1864,-0.19,-0.1936,-0.1938,-0.2047,-0.2048,-0.2053,-0.2047,0,0,0,-0.154,-0.1557,-0.1584,-0.1607,-0.1691,-0.1788,-0.1812,-0.1855,-0.1882,-0.1935,-0.1939,-0.2046,-0.2048,-0.2051,-0.2046,-0.2037,0,0,0,-0.1502,-0.1556,-0.1584,-0.166,-0.1689,-0.1805,-0.1812,-0.1906,-0.1958,-0.1937,-0.2047,-0.2048,-0.2051,-0.2045,-0.2036,-0.1761,0,0,0,-0.1543,-0.1561,-0.1605,-0.1634,-0.1736,-0.1778,-0.1874,-0.1945,-0.1968,-0.2003,-0.2007,-0.2053,-0.2046,-0.2037,-0.1844,0,0,0,0,-0.1599,-0.163,-0.1668,-0.174,-0.1819,-0.1879,-0.1955,-0.1978,-0.2038,-0.2008,-0.2079,-0.2075,-0.2068,-0.1908,-0.2055,-0.2055,-0.2054,-0.2054,-0.2054,-0.1597,-0.165,-0.1719,-0.1792,-0.1863,-0.1959,-0.2001,-0.2044,-0.2069,-0.2098,-0.2099,-0.2123,-0.1957,-0.2126,-0.2126,-0.2126,-0.2126,-0.2126,-0.2126,-0.1627,-0.1651,-0.1733,-0.1816,-0.1885,-0.1964,-0.2042,-0.207,-0.2112,-0.2126,-0.212,-0.195,-0.2127,-0.2127,-0.2127,-0.2127,-0.2126,-0.2126,-0.2126,-0.1596,-0.1606,-0.1683,-0.177,-0.1855,-0.1948,-0.1973,-0.2063,-0.2113,-0.2125,-0.1952,-0.2124,-0.2099,-0.213,-0.213,-0.213,-0.213,-0.213,-0.213,-0.1501,-0.1576,-0.1598,-0.1706,-0.1734,-0.1806,-0.1935,-0.1952,-0.2048,-0.1928,-0.2133,-0.2124,-0.2124,-0.21,-0.2129,-0.2129,-0.2129,-0.2129,-0.2129,-0.1418,-0.145,-0.1454,-0.1478,-0.153,-0.1566,-0.1741,-0.1756,-0.175,-0.1707,-0.1809,-0.1825,-0.1791,-0.1799,-0.1762,-0.1692,-0.1688,-0.1685,0,-0.1318,-0.1348,-0.1293,-0.1263,-0.1245,-0.1392,-0.133,-0.1418,-0.1524,-0.1463,-0.1747,-0.1861,-0.1871,-0.1833,-0.1835,-0.1791,0,0,0,-0.1226,-0.1218,-0.1128,-0.1124,-0.1088,-0.1151,-0.1302,-0.1261,-0.1521,-0.146,-0.1598,-0.162,-0.1933,-0.2127,-0.2113,-0.2113,-0.2074,0,0]},{"header":{"parameterUnit":"m.s-1","parameterCategory":2,"la1":30.2992,"la2":30.254,"lo1":-89.0895,"lo2":-89.0443,"dy":0.0025,"dx":0.0025,"nx":19,"ny":19,"refTime":"2026-03-23T09:00:00:Z","depth":"4","parameterNumber":3,"parameterNumberName":"V-component_of_CURRENTS"},"data":[0,0,0,-0.0247,-0.0246,-0.0171,-0.017,-0.0029,-0.0028,0,0,0,0,0,0,0,0,0,0,0,-0.0273,-0.0273,-0.0247,-0.0246,-0.0171,-0.017,-0.0029,-0.0028,0,0,0,0,0,0,0,0,0,0,0,-0.0273,-0.0273,-0.0273,-0.0246,-0.0171,-0.017,-0.003,-0.0094,0,0,0,0,0,0,0,0,0,0,-0.0171,-0.0212,-0.0273,-0.0273,-0.0245,-0.0171,-0.017,-0.0098,-0.009,-0.0055,0,-0.0052,0,-0.0041,-0.0019,-0.0018,0,0,0,-0.0232,-0.0219,-0.0195,-0.0273,-0.0245,-0.0171,-0.0201,-0.0094,-0.0085,-0.0044,-0.005,-0.0045,-0.0039,-0.0018,-0.0017,0.0124,0.0125,0,0,-0.0236,-0.0257,-0.0202,-0.0191,-0.0236,-0.0203,-0.0199,-0.0089,-0.0085,-0.005,-0.0042,-0.0036,-0.0017,-0.0016,0.0124,0.0124,0,0,0,-0.0257,-0.026,-0.024,-0.0196,-0.0188,-0.0201,-0.0196,-0.009,-0.0083,-0.004,-0.0035,-0.0016,-0.0014,0.0123,0.0124,0.0039,0,0,0,-0.0259,-0.0273,-0.0242,-0.0253,-0.0191,-0.0146,-0.02,-0.009,-0.0078,-0.0035,-0.0016,-0.0013,0.0122,0.0123,0.004,-0.0023,0,0,0,-0.0275,-0.0274,-0.0269,-0.0254,-0.0228,-0.0148,-0.0134,-0.0088,-0.0075,-0.0018,-0.0013,0.0122,0.0123,0.0041,-0.002,0.0001,0,0,0,-0.0293,-0.029,-0.027,-0.0265,-0.0229,-0.0177,-0.0135,-0.0087,-0.0042,-0.0015,0.0122,0.0124,0.0042,-0.0018,0.0002,-0.0076,0,0,0,-0.0299,-0.0292,-0.0289,-0.0269,-0.0255,-0.0186,-0.0147,-0.0074,-0.0007,0.0091,0.0094,0.004,-0.002,0.0001,-0.0001,0,0,0,0,-0.0297,-0.0309,-0.0294,-0.0288,-0.0234,-0.0202,-0.0116,-0.0062,0.0023,0.0023,0.0089,0.0055,0.007,0.0032,0.013,0.0129,0.0129,0.0129,0.0129,-0.0346,-0.0332,-0.0348,-0.0327,-0.029,-0.02,-0.0154,-0.006,0.0014,0.0049,0.0023,0.0027,-0.0013,0.0082,0.0082,0.0081,0.0081,0.0081,0.0081,-0.0408,-0.0432,-0.0421,-0.0438,-0.0386,-0.0346,-0.0206,-0.0142,-0.0038,0.001,0.0031,-0.001,0.0074,0.0075,0.0076,0.0077,0.0078,0.0078,0.0078,-0.0469,-0.0481,-0.0503,-0.0545,-0.054,-0.0454,-0.0419,-0.0284,-0.0136,-0.0116,-0.0096,-0.0011,-0.0045,-0.0082,-0.0082,-0.0082,-0.0082,-0.0083,-0.0083,-0.0523,-0.0544,-0.0618,-0.0653,-0.0685,-0.0668,-0.0535,-0.0451,-0.0278,-0.0203,-0.013,-0.0027,-0.0022,-0.0051,-0.0085,-0.0085,-0.0085,-0.0084,-0.0084,-0.0593,-0.0613,-0.0718,-0.0777,-0.0845,-0.0822,-0.0718,-0.053,-0.0436,-0.0327,-0.0218,-0.021,-0.0183,-0.0173,-0.0207,-0.029,-0.0291,-0.0292,0,-0.0642,-0.066,-0.0804,-0.0902,-0.0958,-0.0903,-0.0809,-0.0677,-0.0461,-0.0464,-0.0411,-0.0296,-0.0287,-0.0263,-0.0256,-0.0301,0,0,0,-0.07,-0.0732,-0.0841,-0.094,-0.1005,-0.0871,-0.0775,-0.0714,-0.0508,-0.0426,-0.0321,-0.0314,-0.0235,-0.0094,-0.0032,-0.0026,-0.0069,0,0]}]]